#timestamp,LO_Frequency,Hit,StdDev 
1610413215.2,286047001.8,N
1610413235.0,286047002.9,N
1610413235.9,286047002.9,N
1610413255.8,286047006.1,N
1610413275.6,286047006.6,N
1610413295.5,286047008.6,Y
1610413315.3,286047004.8,P
1610413335.1,286047006.0,P
1610413355.9,286047003.0,N
1610413375.7,286047003.9,N
1610413395.5,286047002.2,N
1610413415.4,286046999.7,N
1610413435.2,286047000.1,N
1610413455.1,286046999.8,N
1610413456.0,286046999.8,N
1610413475.8,286047002.5,N
1610413495.6,286047003.6,N
1610413515.5,286047001.8,N
1610413535.3,286046999.8,N
1610413555.2,286047001.2,N
1610413575.9,286046999.9,N
1610413595.7,286047002.6,N
1610413615.6,286047004.4,N
1610413635.4,286047001.7,N
1610413655.2,286047002.4,N
1610413675.1,286047003.8,N
1610413676.0,286047003.8,N
1610413695.8,286047002.0,N
1610413715.7,286047003.9,N
1610413735.5,286047003.1,N
1610413755.3,286047003.3,N
1610413775.2,286047004.3,N
1610413795.0,286047002.8,N
1610413795.9,286047002.8,N
1610413815.7,286047000.9,N
1610413835.6,286047000.0,N
1610413855.4,286046998.7,N
1610413875.3,286046999.0,N
1610413895.1,286047000.9,N
1610413915.8,286046999.8,N
1610413935.7,286046999.7,N
1610413955.5,286047002.5,N
1610413975.4,286047001.3,N
1610413995.2,286047000.2,N
1610414015.0,286047001.2,N
1610414015.9,286047001.2,N
1610414035.8,286047002.8,N
1610414055.6,286047001.6,N
1610414075.5,286047001.3,N
1610414095.3,286047004.0,N
1610414115.1,286047006.0,Y
1610414135.9,286047003.4,P
1610414155.7,286047003.5,P
1610414175.5,286046999.9,N
1610414195.4,286046998.6,N
1610414215.2,286046998.3,N
1610414235.1,286047000.6,N
1610414236.0,286047000.6,N
1610414255.8,286047001.8,N
1610414275.6,286047002.6,N
1610414295.5,286047002.0,N
1610414315.3,286047002.1,N
1610414335.2,286047000.8,N
1610414355.9,286046999.0,N
1610414375.7,286046999.7,N
1610414395.6,286047002.3,N
1610414415.4,286046999.4,N
1610414435.2,286046997.1,N
1610414455.1,286046995.2,N
1610414456.0,286046995.2,N
1610414475.8,286046996.4,N
1610414495.7,286046997.6,N
1610414515.5,286046997.2,N
1610414535.3,286046997.3,N
1610414555.2,286046997.7,N
1610414575.0,286046996.7,N
1610414575.9,286046996.7,N
1610414595.7,286046999.4,N
1610414615.6,286047002.8,N
1610414635.4,286047002.8,N
1610414655.3,286047002.1,N
1610414675.1,286046999.8,N
1610414695.8,286046999.1,N
1610414715.7,286046997.7,N
1610414735.5,286046999.2,N
1610414755.4,286046999.5,N
1610414775.2,286046997.0,N
1610414795.0,286046999.2,N
1610414795.9,286046999.2,N
1610414815.8,286046997.2,N
1610414835.6,286046996.8,N
1610414855.4,286046997.7,N
1610414875.3,286046997.0,N
1610414895.1,286046996.7,N
1610414915.9,286046996.5,N
1610414935.7,286046998.7,N
1610414955.5,286047001.2,N
1610414975.4,286046999.6,N
1610414995.2,286046996.7,N
1610415015.0,286046999.6,N
1610415016.0,286046999.6,N
1610415035.8,286046998.9,N
1610415055.6,286046996.9,N
1610415075.5,286046999.3,N
1610415095.3,286046998.7,N
1610415115.1,286046998.9,N
1610415135.9,286047000.4,N
1610415155.7,286047000.6,N
1610415175.6,286047000.7,N
1610415195.4,286047002.8,N
1610415215.2,286046999.8,N
1610415235.1,286046999.2,N
1610415236.0,286046999.2,N
1610415255.8,286046998.2,N
1610415275.7,286047000.1,N
1610415295.5,286046999.8,N
1610415315.3,286047001.2,N
1610415335.2,286046998.4,N
1610415355.0,286046998.4,N
1610415355.9,286046998.4,N
1610415375.8,286046998.2,N
1610415395.6,286046999.3,N
1610415415.4,286046998.7,N
1610415435.3,286046998.3,N
1610415455.1,286046998.9,N
1610415475.8,286046999.4,N
1610415495.7,286046999.9,N
1610415515.5,286047000.8,N
1610415535.4,286046999.3,N
1610415555.2,286046996.9,N
1610415575.0,286046994.9,Y
1610415575.9,286046994.9,P
1610415595.8,286046997.3,N
1610415615.6,286046995.0,N
1610415635.5,286046999.3,N
1610415655.3,286046999.7,N
1610415675.1,286047002.3,N
1610415695.9,286047002.5,N
1610415715.7,286047000.3,N
1610415735.5,286046999.3,N
1610415755.4,286046998.6,N
1610415775.2,286046998.4,N
1610415795.1,286046998.9,N
1610415796.0,286046998.9,N
1610415815.8,286047001.8,N
1610415835.6,286047003.9,N
1610415855.5,286047003.9,N
1610415875.3,286047003.7,N
1610415895.1,286047003.6,N
1610415915.9,286047003.7,N
1610415935.7,286047003.4,N
1610415955.6,286047008.6,Y
1610415975.4,286047009.1,P
1610415995.2,286047007.6,N
1610416015.1,286047005.0,N
1610416016.0,286047005.0,N
1610416035.8,286047005.4,N
1610416055.7,286047005.4,N
1610416075.5,286047005.5,N
1610416095.3,286047006.0,N
1610416115.2,286047005.8,N
1610416135.0,286047005.9,N
1610416135.9,286047005.9,N
1610416155.8,286047003.3,N
1610416175.6,286047005.0,N
1610416195.4,286047008.1,Y
1610416215.3,286047005.5,P
1610416235.1,286047005.9,P
1610416255.8,286047003.8,P
1610416275.7,286047002.9,Y
1610416295.5,286047000.7,P
1610416315.4,286046997.0,N
1610416335.2,286046997.0,N
1610416355.0,286046997.6,N
1610416355.9,286046997.6,N
1610416375.8,286046998.0,N
1610416395.6,286046997.3,N
1610416415.5,286046995.2,N
1610416435.3,286046996.0,N
1610416455.1,286046993.3,N
1610416475.9,286046995.6,N
1610416495.7,286046997.9,N
1610416515.6,286046995.4,N
1610416535.4,286046995.0,N
1610416555.2,286046995.1,N
1610416575.1,286046995.6,N
1610416576.0,286046995.6,N
1610416595.8,286046998.0,N
1610416615.6,286046996.5,N
1610416635.5,286046997.1,N
1610416655.3,286046995.1,N
1610416675.2,286046995.7,N
1610416695.9,286046995.4,N
1610416715.7,286046997.4,N
1610416735.6,286046997.7,N
1610416755.4,286046997.7,N
1610416775.3,286046999.5,N
1610416795.1,286046998.7,N
1610416796.0,286046998.7,N
